Flag for Luxembourg Weather past 2 weeks in Ettelbruck, Luxembourg

Now
66 °F

Low clouds.


Feels Like: 66 °F
Forecast: 64 / 82 °F
Wind: 5 mph from North

Location: Luxembourg / Luxembourg

Current Time: Jul 22, 2014 at 11:21:35 AM

Latest Report: Jul 22, 2014 at 10:00 AM


Visibility: 3 mi

Pressure: 29.99 "Hg

Humidity: 93%

Dew point: 64 °F

Location of EttelbruckLocation

Historic Weather in Ettelbruck — Graph

°F

Ettelbruck temperature yesterday

Maximum temperature yesterday: 69 °F (at 6:00 PM)
Minimum temperature yesterday: 62 °F (at 6:00 AM)
Average temperature yesterday: 66 °F

Past Weeks' High & Low Weather Summary

 TemperatureHumidityPressure
High90 °F (Jul 18, 6:00 PM)100% (Jul 10, 8:00 AM)30.19 "Hg (Jul 10, 8:00 AM)
Low52 °F (Jul 9, 10:00 AM)31% (Jul 19, 3:00 PM)29.72 "Hg (Jul 10, 2:00 AM)
Average67 °F73%29.95 "Hg
* Reported Jul 7 10:00 AM — Jul 22 10:00 AM, Ettelbruck, Weather by CustomWeather, © 2014

Note: Actual official high and low records may vary slightly from our data, if they occured in-between our weather recording intervals... More about our weather records

Advertising

Ettelbruck weather history for previous 24 hours

 ConditionsComfort  
Time TempWeatherWind HumidityBarometerVisibility
10:00 AM
Jul 22
66 °FLow clouds.5 mph93%29.99 "Hg3 mi
9:00 AM65 °FLow clouds.5 mph94%29.98 "Hg4 mi
8:00 AM64 °FLow clouds.5 mph94%29.98 "Hg4 mi
7:00 AM63 °FLow clouds.5 mph97%29.98 "Hg5 mi
6:00 AM63 °FLow clouds.5 mph96%29.98 "Hg3 mi
5:00 AM63 °FLow clouds.3 mph96%29.97 "Hg4 mi
3:00 AM62 °FCool.5 mph96%29.98 "Hg6 mi
2:00 AM63 °FMild.5 mph92%29.98 "Hg4 mi
1:00 AM63 °FOvercast.5 mph92%29.98 "Hg9 mi
12:00 AM63 °FOvercast.3 mph89%29.98 "Hg9 mi
11:00 PM
Jul 21
63 °FOvercast.5 mph89%29.98 "Hg9 mi
10:00 PM64 °FOvercast.5 mph87%29.97 "Hg9 mi
8:00 PM67 °FOvercast.6 mph80%29.95 "Hg12 mi
7:00 PM68 °FOvercast.5 mph76%29.94 "Hg12 mi
6:00 PM69 °FOvercast.5 mph76%29.93 "Hg12 mi
5:00 PM68 °FOvercast.6 mph77%29.93 "Hg7 mi
4:00 PM68 °FOvercast.5 mph80%29.93 "Hg7 mi
3:00 PM69 °FOvercast.6 mph78%29.92 "Hg6 mi
2:00 PM68 °FOvercast.6 mph80%29.91 "Hg4 mi
1:00 PM67 °FOvercast.5 mph87%29.91 "Hg4 mi
12:00 PM68 °FOvercast.3 mph82%29.90 "Hg4 mi
11:00 AM67 °FOvercast.3 mph84%29.90 "Hg5 mi
Weather by CustomWeather, © 2014

See weather overviewHow to use our weather pages